Location: Allison's Woods
(35.8809°N, 80.8140°W)
Time: 08:20:32
(UTC-04:00)

Iridium 39 - Visible Passes

Search period start: 02 August 2015 00:00
Search period end: 12 August 2015 00:00
Orbit: 776 x 779 km, 86.4° (Epoch: 01 August)

Date Brightness Start Highest point End Pass type
(mag) Time Alt. Az. Time Alt. Az. Time Alt. Az.
02 Aug 7.7 01:35:55 30° N 01:35:55 30° N 01:38:30 10° N visible
03 Aug 7.8 01:02:31 27° NNE 01:02:31 27° NNE 01:04:53 10° NNE visible
03 Aug 8.6 02:43:00 11° NW 02:43:00 11° NW 02:43:33 10° NW visible
04 Aug 8.2 00:29:07 19° NE 00:29:07 19° NE 00:30:52 10° NNE visible
04 Aug 8.2 02:09:35 18° NW 02:09:35 18° NW 02:11:26 10° NNW visible
04 Aug 8.5 23:55:42 11° NE 23:55:42 11° NE 23:56:09 10° NE visible
05 Aug 8.0 01:36:10 25° NNW 01:36:10 25° NNW 01:38:28 10° N visible
06 Aug 7.9 01:02:45 27° N 01:02:45 27° N 01:05:04 10° N visible
07 Aug 8.0 00:29:19 22° NNE 00:29:19 22° NNE 00:31:19 10° NNE visible
07 Aug 8.5 02:09:48 13° NW 02:09:48 13° NW 02:10:50 10° NW visible
07 Aug 8.3 23:55:54 15° NE 23:55:54 15° NE 23:57:05 10° NNE visible
08 Aug 8.2 01:36:22 20° NNW 01:36:22 20° NNW 01:38:16 10° NNW visible
09 Aug 8.0 01:02:56 25° N 01:02:56 25° N 01:05:07 10° N visible
10 Aug 8.0 00:29:30 24° NNE 00:29:30 24° NNE 00:31:35 10° N visible
10 Aug 8.1 23:56:03 19° NNE 23:56:03 19° NNE 23:57:39 10° NNE visible
11 Aug 8.5 01:36:30 16° NW 01:36:30 16° NW 01:37:53 10° NNW visible
11 Aug 8.4 23:22:35 12° NE 23:22:35 12° NE 23:23:08 10° NE visible
